Imperial, CA

3:56 AM PDT on April 20, 2018 (GMT -0700)
Imperial County

Weather History for KIPL - June, 2014

Change the Weather History Date:

Thursday, June 26, 2014

  Actual Average Record
Temperature  
Mean Temperature 90 °F -  
Max Temperature 109 °F 107 °F 117 °F (1970)
Min Temperature 75 °F 73 °F 60 °F (1952)
Cooling Degree Days 26    
Growing Degree Days 40 (Base 50)    
Moisture  
Dew Point 50 °F    
Average Humidity 28    
Maximum Humidity 60    
Minimum Humidity 9    
Precipitation  
Precipitation 0.00 in - - ()
Sea Level Pressure  
Sea Level Pressure 29.68 in    
Wind  
Wind Speed 7 mph (WSW)    
Max Wind Speed 22 mph    
Max Gust Speed 30 mph    
Visibility 10 miles    
Events      
Averages and records for this station are not official NWS values.
T = Trace of Precipitation, MM = Missing Value Source: NWS Daily Summary

Daily Weather History Graph

Daily Weather History Graph

Search for Another Location

Airport or City:

Astronomy

Jun. 26, 2014 Rise Set
Actual Time 5:35 AM PDT 7:54 PM PDT
Civil Twilight 5:07 AM PDT 8:23 PM PDT
Nautical Twilight 4:32 AM PDT 8:58 PM PDT
Astronomical Twilight 3:54 AM PDT 9:36 PM PDT
Moon 5:14 AM PDT (6/26) 7:23 PM PDT (6/26)
Length of Visible Light 15h 15m
Length of Day
14h 18m
Waning Crescent, 0% of the Moon is Illuminated
Jun 26
Waning Crescent
Jun 27
New
Jul 5
First Quarter
Jul 12
Full
Jul 18
Last Quarter

Hourly Weather History & Observations

Time (PDT) Temp. Heat Index Dew Point Humidity Pressure Visibility Wind Dir Wind Speed Gust Speed Precip Events Conditions
12:53 AM 82.9 °F - 44.1 °F 25% 29.69 in 10.0 mi SW 5.8 mph - N/A   Clear
1:53 AM 80.1 °F - 52.0 °F 38% 29.69 in 10.0 mi Calm Calm - N/A   Clear
2:53 AM 77.0 °F - 55.0 °F 47% 29.69 in 10.0 mi Calm Calm - N/A   Clear
3:53 AM 79.0 °F - 57.9 °F 48% 29.68 in 10.0 mi SSE 6.9 mph - N/A   Clear
4:53 AM 75.9 °F - 60.1 °F 58% 29.69 in 10.0 mi Calm Calm - N/A   Clear
5:53 AM 75.0 °F - 60.1 °F 60% 29.70 in 9.0 mi ESE 3.5 mph - N/A   Clear
6:53 AM 79.0 °F - 57.0 °F 47% 29.72 in 10.0 mi SE 6.9 mph - N/A   Clear
7:53 AM 82.9 °F 83.3 °F 61.0 °F 47% 29.74 in 10.0 mi SE 6.9 mph - N/A   Clear
8:53 AM 87.1 °F 87.8 °F 63.0 °F 44% 29.75 in 10.0 mi ESE 3.5 mph - N/A   Clear
9:53 AM 91.0 °F 90.9 °F 61.0 °F 36% 29.75 in 10.0 mi Calm Calm - N/A   Clear
10:53 AM 96.1 °F - 52.0 °F 22% 29.73 in 10.0 mi SSW 3.5 mph - N/A   Clear
11:53 AM 99.0 °F 96.5 °F 53.1 °F 21% 29.72 in 10.0 mi West 4.6 mph - N/A   Clear
12:53 PM 100.9 °F - 48.0 °F 17% 29.70 in 10.0 mi Variable 3.5 mph - N/A   Clear
1:53 PM 104.0 °F - 48.0 °F 15% 29.68 in 10.0 mi West 5.8 mph - N/A   Clear
2:53 PM 105.1 °F - 45.0 °F 13% 29.65 in 10.0 mi Calm Calm - N/A   Clear
3:53 PM 106.0 °F - 37.0 °F 9% 29.63 in 10.0 mi WNW 16.1 mph 26.5 mph N/A   Clear
4:53 PM 104.0 °F - 37.9 °F 10% 29.63 in 8.0 mi WNW 13.8 mph 21.9 mph N/A   Partly Cloudy
5:19 PM 104.0 °F - 37.0 °F 10% 29.62 in 6.0 mi WNW 17.3 mph 29.9 mph N/A   Haze
5:28 PM 105.1 °F - 37.9 °F 10% 29.62 in 10.0 mi West 15.0 mph 27.6 mph N/A   Scattered Clouds
5:53 PM 102.9 °F - 36.0 °F 10% 29.63 in 10.0 mi West 20.7 mph 29.9 mph N/A   Clear
6:53 PM 98.1 °F - 42.1 °F 15% 29.64 in 10.0 mi West 18.4 mph - N/A   Clear
7:53 PM 93.0 °F - 46.0 °F 20% 29.65 in 10.0 mi WSW 19.6 mph - N/A   Clear
8:53 PM 88.0 °F - 48.9 °F 26% 29.66 in 10.0 mi WSW 20.7 mph - N/A   Clear
9:53 PM 86.0 °F - 48.9 °F 28% 29.68 in 10.0 mi West 17.3 mph 25.3 mph N/A   Clear
10:53 PM 82.9 °F - 50.0 °F 32% 29.69 in 9.0 mi West 17.3 mph 26.5 mph N/A   Clear
11:53 PM 82.0 °F - 48.9 °F 31% 29.68 in 10.0 mi West 21.9 mph - N/A   Clear